| time (UTC) | temp C | wind direction | speed KPH | gust KPH | rain 1hr cm | rain 24hr cm | rain mn cm | humidity % | barometer mb |
| 20260507202511 | 13 | 270 | 12.9 | 35.4 | 0.00 | 0.00 | 3.61 | 73 | 1001.5 |
| 20260507202001 | 13 | 248 | 12.9 | 29.0 | 0.00 | 0.00 | 3.61 | 73 | 1001.7 |
| 20260507201451 | 13 | 315 | 16.1 | 29.0 | 0.00 | 0.00 | 3.61 | 72 | 1001.7 |
| 20260507200940 | 13 | 293 | 12.9 | 33.8 | 0.00 | 0.00 | 3.61 | 72 | 1001.4 |
| 20260507200430 | 13 | 293 | 9.7 | 40.2 | 0.00 | 0.00 | 3.61 | 72 | 1001.3 |
| 20260507195920 | 13 | 248 | 16.1 | 40.2 | 0.00 | 0.00 | 3.61 | 71 | 1001.2 |
| 20260507195410 | 13 | 293 | 17.7 | 38.6 | 0.00 | 0.00 | 3.61 | 71 | 1000.9 |
| 20260507194900 | 13 | 248 | 9.7 | 38.6 | 0.00 | 0.00 | 3.61 | 71 | 1000.4 |
| 20260507194350 | 13 | 293 | 20.9 | 43.5 | 0.00 | 0.00 | 3.61 | 71 | 1000.6 |
| 20260507192820 | 13 | 270 | 11.3 | 37.0 | 0.00 | 0.00 | 3.61 | 71 | 1000.0 |
| 20260507192310 | 13 | 248 | 19.3 | 37.0 | 0.00 | 0.00 | 3.61 | 71 | 1000.2 |
| 20260507191800 | 13 | 270 | 14.5 | 35.4 | 0.00 | 0.00 | 3.61 | 71 | 999.6 |
| 20260507190740 | 13 | 293 | 14.5 | 38.6 | 0.00 | 0.00 | 3.61 | 70 | 1000.5 |
| 20260507190242 | 13 | 225 | 12.9 | 38.6 | 0.00 | 0.00 | 3.61 | 70 | 1000.9 |
| 20260507185209 | 13 | 90 | 17.7 | 29.0 | 0.00 | 0.00 | 3.61 | 69 | 1000.9 |
| 20260507184659 | 13 | 225 | 3.2 | 29.0 | 0.00 | 0.00 | 3.61 | 69 | 1001.2 |
| 20260507184150 | 13 | 225 | 9.7 | 29.0 | 0.00 | 0.00 | 3.61 | 68 | 1001.6 |
| 20260507183639 | 13 | 248 | 12.9 | 37.0 | 0.00 | 0.00 | 3.61 | 67 | 1002.1 |
| 20260507183129 | 13 | 225 | 16.1 | 37.0 | 0.00 | 0.00 | 3.61 | 67 | 1002.2 |
| 20260507182106 | 14 | 293 | 6.4 | 32.2 | 0.00 | 0.00 | 3.61 | 66 | 1002.3 |
| 20260507181556 | 14 | 248 | 6.4 | 27.4 | 0.00 | 0.00 | 3.61 | 66 | 1002.4 |
| 20260507181048 | 14 | 315 | 9.7 | 27.4 | 0.00 | 0.00 | 3.61 | 65 | 1002.2 |
| 20260507180551 | 14 | 293 | 8.0 | 25.7 | 0.00 | 0.00 | 3.61 | 65 | 1002.5 |
| 20260507180033 | 14 | 225 | 12.9 | 25.7 | 0.00 | 0.00 | 3.61 | 65 | 1003.0 |
| 20260507173950 | 14 | 293 | 8.0 | 32.2 | 0.00 | 0.00 | 3.61 | 65 | 1003.4 |
| 20260507173438 | 13 | 293 | 12.9 | 32.2 | 0.00 | 0.00 | 3.61 | 65 | 1003.0 |
| 20260507172927 | 13 | 315 | 12.9 | 32.2 | 0.00 | 0.00 | 3.61 | 65 | 1003.0 |
| 20260507172417 | 13 | 270 | 9.7 | 37.0 | 0.00 | 0.00 | 3.61 | 65 | 1002.9 |
| 20260507171907 | 13 | 315 | 12.9 | 37.0 | 0.00 | 0.00 | 3.61 | 65 | 1002.7 |
| 20260507171357 | 13 | 315 | 8.0 | 27.4 | 0.00 | 0.00 | 3.61 | 67 | 1002.7 |
| 20260507170847 | 13 | 315 | 12.9 | 29.0 | 0.00 | 0.00 | 3.61 | 66 | 1002.2 |
| 20260507165826 | 13 | 270 | 12.9 | 32.2 | 0.00 | 0.00 | 3.61 | 66 | 1001.8 |
| 20260507165316 | 13 | 338 | 14.5 | 32.2 | 0.00 | 0.00 | 3.61 | 66 | 1001.5 |
| 20260507164257 | 13 | 338 | 6.4 | 33.8 | 0.00 | 0.00 | 3.61 | 67 | 1001.2 |
| 20260507163237 | 13 | 293 | 8.0 | 22.5 | 0.00 | 0.00 | 3.61 | 69 | 1000.9 |
| 20260507162726 | 13 | 293 | 6.4 | 22.5 | 0.00 | 0.00 | 3.61 | 69 | 1001.0 |
| 20260507162216 | 13 | 270 | 11.3 | 25.7 | 0.00 | 0.00 | 3.61 | 69 | 1001.6 |
| 20260507161706 | 13 | 293 | 8.0 | 25.7 | 0.00 | 0.00 | 3.61 | 69 | 1002.2 |
| 20260507161156 | 13 | 293 | 6.4 | 25.7 | 0.00 | 0.00 | 3.61 | 69 | 1002.4 |
| 20260507160646 | 13 | 248 | 8.0 | 27.4 | 0.00 | 0.00 | 3.61 | 69 | 1002.2 |
| 20260507160136 | 13 | 270 | 16.1 | 32.2 | 0.00 | 0.00 | 3.61 | 68 | 1002.8 |
| 20260507155626 | 13 | 315 | 12.9 | 32.2 | 0.00 | 0.00 | 3.61 | 69 | 1002.9 |
| 20260507155115 | 13 | 293 | 12.9 | 24.1 | 0.00 | 0.00 | 3.61 | 69 | 1002.8 |
| 20260507154605 | 13 | 293 | 11.3 | 33.8 | 0.00 | 0.00 | 3.61 | 69 | 1002.6 |
| 20260507154055 | 13 | 270 | 12.9 | 33.8 | 0.00 | 0.00 | 3.61 | 70 | 1002.5 |
| 20260507153545 | 13 | 248 | 14.5 | 27.4 | 0.00 | 0.00 | 3.61 | 70 | 1002.6 |
| 20260507153035 | 13 | 293 | 8.0 | 32.2 | 0.00 | 0.00 | 3.61 | 70 | 1002.4 |
| 20260507152525 | 13 | 293 | 12.9 | 32.2 | 0.00 | 0.00 | 3.61 | 69 | 1002.1 |
| 20260507151505 | 13 | 248 | 9.7 | 22.5 | 0.00 | 0.00 | 3.61 | 71 | 1001.8 |
| 20260507150954 | 13 | 270 | 11.3 | 24.1 | 0.00 | 0.00 | 3.61 | 72 | 1001.8 |
| 20260507145934 | 13 | 270 | 12.9 | 27.4 | 0.00 | 0.00 | 3.61 | 72 | 1001.8 |
| 20260507145424 | 13 | 270 | 12.9 | 25.7 | 0.00 | 0.00 | 3.61 | 72 | 1001.5 |
| 20260507144404 | 13 | 248 | 9.7 | 29.0 | 0.00 | 0.00 | 3.61 | 73 | 1001.9 |
| 20260507143853 | 13 | 270 | 8.0 | 24.1 | 0.00 | 0.00 | 3.61 | 73 | 1002.1 |
| 20260507143345 | 13 | 293 | 12.9 | 24.1 | 0.00 | 0.00 | 3.61 | 72 | 1001.9 |
| 20260507142837 | 13 | 293 | 3.2 | 24.1 | 0.00 | 0.00 | 3.61 | 73 | 1001.9 |
| 20260507141813 | 14 | 248 | 8.0 | 20.9 | 0.00 | 0.00 | 3.61 | 72 | 1002.3 |
| 20260507141304 | 14 | 225 | 6.4 | 20.9 | 0.00 | 0.00 | 3.61 | 73 | 1002.1 |
| 20260507140754 | 13 | 270 | 6.4 | 20.9 | 0.00 | 0.00 | 3.61 | 74 | 1002.4 |
| 20260507140243 | 13 | 293 | 8.0 | 20.9 | 0.00 | 0.00 | 3.61 | 74 | 1002.6 |
| 20260507135746 | 13 | 270 | 4.8 | 24.1 | 0.00 | 0.00 | 3.61 | 73 | 1002.7 |
| 20260507135224 | 13 | 270 | 14.5 | 29.0 | 0.00 | 0.00 | 3.61 | 72 | 1002.6 |
| 20260507134712 | 13 | 225 | 16.1 | 33.8 | 0.00 | 0.00 | 3.61 | 72 | 1003.0 |
| 20260507133652 | 13 | 270 | 12.9 | 25.7 | 0.00 | 0.00 | 3.61 | 75 | 1003.0 |
| 20260507133142 | 14 | 135 | 6.4 | 22.5 | 0.00 | 0.00 | 3.61 | 76 | 1002.6 |
| 20260507132633 | 14 | 248 | 4.8 | 24.1 | 0.00 | 0.00 | 3.61 | 76 | 1002.4 |
| 20260507132122 | 14 | 270 | 8.0 | 24.1 | 0.00 | 0.00 | 3.61 | 76 | 1002.3 |
| 20260507131102 | 14 | 225 | 12.9 | 20.9 | 0.00 | 0.00 | 3.61 | 75 | 1002.0 |
| 20260507130605 | 15 | 248 | 12.9 | 20.9 | 0.00 | 0.00 | 3.61 | 75 | 1001.4 |
| 20260507125531 | 15 | 248 | 12.9 | 24.1 | 0.00 | 0.00 | 3.61 | 73 | 1001.7 |
| 20260507125021 | 15 | 248 | 8.0 | 17.7 | 0.00 | 0.00 | 3.61 | 77 | 1001.8 |
| 20260507124511 | 15 | 248 | 3.2 | 12.9 | 0.00 | 0.00 | 3.61 | 77 | 1001.6 |
| 20260507124001 | 15 | 248 | 3.2 | 14.5 | 0.00 | 0.00 | 3.61 | 77 | 1001.9 |
| 20260507123452 | 15 | 270 | 3.2 | 17.7 | 0.00 | 0.00 | 3.61 | 77 | 1001.8 |
| 20260507122941 | 15 | 225 | 8.0 | 17.7 | 0.00 | 0.00 | 3.61 | 76 | 1001.5 |
| 20260507122430 | 14 | 248 | 3.2 | 17.7 | 0.00 | 0.00 | 3.61 | 78 | 1002.0 |
| 20260507121920 | 14 | 270 | 3.2 | 32.2 | 0.00 | 0.00 | 3.61 | 78 | 1002.4 |
| 20260507121410 | 14 | 293 | 9.7 | 32.2 | 0.00 | 0.00 | 3.61 | 78 | 1001.3 |
| 20260507120900 | 14 | 248 | 9.7 | 22.5 | 0.00 | 0.00 | 3.61 | 77 | 1000.3 |
| 20260507115840 | 14 | 225 | 11.3 | 27.4 | 0.00 | 0.00 | 3.61 | 76 | 1000.1 |
| 20260507115330 | 15 | 248 | 14.5 | 33.8 | 0.00 | 0.00 | 3.61 | 76 | 1000.8 |
| 20260507114820 | 15 | 248 | 16.1 | 33.8 | 0.00 | 0.00 | 3.61 | 76 | 1000.9 |
| 20260507114310 | 15 | 293 | 16.1 | 37.0 | 0.00 | 0.00 | 3.61 | 76 | 1000.6 |
| 20260507113759 | 14 | 270 | 11.3 | 37.0 | 0.00 | 0.00 | 3.61 | 76 | 1000.3 |
| 20260507113249 | 14 | 293 | 17.7 | 35.4 | 0.00 | 0.00 | 3.61 | 76 | 1000.4 |
| 20260507112739 | 14 | 225 | 14.5 | 40.2 | 0.00 | 0.00 | 3.61 | 77 | 1000.0 |
| 20260507111719 | 15 | 248 | 19.3 | 49.9 | 0.00 | 0.00 | 3.61 | 79 | 999.2 |
| 20260507110700 | 15 | 293 | 17.7 | 38.6 | 0.00 | 0.00 | 3.61 | 81 | 1000.8 |
| 20260507105639 | 15 | 248 | 12.9 | 24.1 | 0.00 | 0.00 | 3.61 | 83 | 1000.8 |
| 20260507105129 | 15 | 248 | 12.9 | 24.1 | 0.00 | 0.00 | 3.61 | 83 | 1000.9 |
| 20260507104621 | 15 | 270 | 12.9 | 37.0 | 0.00 | 0.00 | 3.61 | 84 | 1000.3 |
| 20260507104110 | 15 | 270 | 12.9 | 37.0 | 0.00 | 0.00 | 3.61 | 86 | 999.8 |
| 20260507103559 | 14 | 225 | 14.5 | 29.0 | 0.00 | 0.00 | 3.61 | 87 | 999.5 |
| 20260507103048 | 14 | 225 | 6.4 | 29.0 | 0.00 | 0.00 | 3.61 | 90 | 999.8 |
| 20260507102537 | 14 | 203 | 17.7 | 32.2 | 0.00 | 0.00 | 3.61 | 91 | 999.8 |
| 20260507101518 | 14 | 203 | 17.7 | 38.6 | 0.00 | 0.00 | 3.61 | 92 | 999.1 |
| 20260507101007 | 14 | 248 | 12.9 | 29.0 | 0.00 | 0.00 | 3.61 | 92 | 998.9 |
| 20260507100458 | 14 | 293 | 17.7 | 33.8 | 0.00 | 0.00 | 3.61 | 92 | 999.5 |
| 20260507095947 | 14 | 270 | 20.9 | 33.8 | 0.00 | 0.00 | 3.61 | 92 | 1000.2 |
| 20260507095437 | 14 | 338 | 11.3 | 32.2 | 0.00 | 0.00 | 3.61 | 92 | 1000.6 |
| 20260507094928 | 14 | 248 | 3.2 | 32.2 | 0.00 | 0.00 | 3.61 | 92 | 1001.2 |
| 20260507094414 | 14 | 248 | 12.9 | 33.8 | 0.00 | 0.00 | 3.61 | 92 | 1000.5 |
| 20260507093907 | 14 | 203 | 22.5 | 38.6 | 0.00 | 0.00 | 3.61 | 92 | 999.5 |
| 20260507093356 | 14 | 248 | 16.1 | 43.5 | 0.00 | 0.00 | 3.61 | 92 | 999.9 |
| 20260507092847 | 14 | 248 | 16.1 | 43.5 | 0.00 | 0.00 | 3.61 | 92 | 999.7 |
| 20260507092336 | 14 | 225 | 25.7 | 43.5 | 0.00 | 0.00 | 3.61 | 92 | 998.9 |
| 20260507091316 | 14 | 293 | 12.9 | 20.9 | 0.00 | 0.00 | 3.61 | 92 | 999.1 |
| 20260507090806 | 15 | 248 | 6.4 | 29.0 | 0.00 | 0.00 | 3.61 | 92 | 999.5 |
| 20260507090256 | 15 | 248 | 6.4 | 29.0 | 0.00 | 0.00 | 3.61 | 92 | 999.9 |
| 20260507085747 | 15 | 225 | 12.9 | 32.2 | 0.00 | 0.00 | 3.61 | 92 | 1000.5 |
| 20260507085236 | 15 | 225 | 6.4 | 32.2 | 0.00 | 0.00 | 3.61 | 92 | 1000.6 |
| 20260507084726 | 15 | 270 | 8.0 | 25.7 | 0.00 | 0.00 | 3.61 | 92 | 1000.6 |
| 20260507084216 | 15 | 248 | 0.0 | 25.7 | 0.00 | 0.00 | 3.61 | 92 | 1000.8 |
| 20260507083706 | 15 | 270 | 6.4 | 25.7 | 0.00 | 0.00 | 3.61 | 92 | 1000.4 |
| 20260507083158 | 15 | 293 | 12.9 | 20.9 | 0.00 | 0.00 | 3.61 | 92 | 1000.5 |
| 20260507082646 | 15 | 315 | 8.0 | 24.1 | 0.00 | 0.00 | 3.61 | 92 | 1000.6 |
| 20260507082135 | 15 | 248 | 4.8 | 24.1 | 0.00 | 0.00 | 3.61 | 92 | 1000.6 |
| 20260507081625 | 15 | 293 | 6.4 | 22.5 | 0.00 | 0.00 | 3.61 | 92 | 1000.5 |
| 20260507081115 | 15 | 248 | 0.0 | 11.3 | 0.00 | 0.00 | 3.61 | 92 | 1000.2 |
| 20260507080605 | 15 | 270 | 0.0 | 11.3 | 0.00 | 0.00 | 3.61 | 92 | 1000.2 |
| 20260507080107 | 15 | 270 | 0.0 | 3.2 | 0.00 | 0.00 | 3.61 | 92 | 1000.2 |
| 20260507075035 | 15 | 293 | 0.0 | 3.2 | 0.00 | 0.00 | 3.61 | 92 | 1000.4 |
| 20260507074525 | 15 | 293 | 0.0 | 0.0 | 0.00 | 0.00 | 3.61 | 92 | 1000.4 |
| 20260507074014 | 15 | 293 | 0.0 | 3.2 | 0.00 | 0.00 | 3.61 | 92 | 1000.7 |
| 20260507073504 | 15 | 315 | 0.0 | 3.2 | 0.00 | 0.00 | 3.61 | 92 | 1000.9 |
| 20260507072954 | 15 | 293 | 0.0 | 3.2 | 0.00 | 0.00 | 3.61 | 92 | 1001.4 |
| 20260507072445 | 15 | 293 | 0.0 | 0.0 | 0.00 | 0.00 | 3.61 | 92 | 1001.1 |
| 20260507071934 | 15 | 248 | 0.0 | 3.2 | 0.00 | 0.00 | 3.61 | 92 | 1000.9 |
| 20260507070914 | 16 | 270 | 0.0 | 0.0 | 0.00 | 0.00 | 3.61 | 92 | 1000.9 |
| 20260507070158 | 16 | 270 | 0.0 | 0.0 | 0.00 | 0.00 | 3.61 | 92 | 1000.6 |
| 20260507065752 | 16 | 293 | 0.0 | 3.2 | 0.00 | 3.61 | 3.61 | 92 | 1000.4 |
| 20260507065242 | 16 | 293 | 0.0 | 3.2 | 0.00 | 3.61 | 3.61 | 92 | 1000.3 |
| 20260507064733 | 16 | 315 | 0.0 | 3.2 | 0.00 | 3.61 | 3.61 | 92 | 1000.2 |
| 20260507064223 | 16 | 315 | 0.0 | 3.2 | 0.00 | 3.61 | 3.61 | 92 | 999.4 |
| 20260507063712 | 16 | 315 | 0.0 | 0.0 | 0.00 | 3.61 | 3.61 | 92 | 999.7 |
| 20260507063202 | 16 | 315 | 0.0 | 0.0 | 0.00 | 3.61 | 3.61 | 92 | 999.4 |
| 20260507062142 | 16 | 338 | 0.0 | 0.0 | 0.00 | 3.61 | 3.61 | 92 | 999.4 |
| 20260507061632 | 16 | 315 | 0.0 | 0.0 | 0.00 | 3.61 | 3.61 | 92 | 998.9 |
| 20260507061121 | 16 | 23 | 0.0 | 0.0 | 0.00 | 3.61 | 3.61 | 92 | 999.4 |
| 20260507060108 | 16 | 23 | 0.0 | 0.0 | 0.03 | 3.61 | 3.61 | 92 | 999.0 |
| 20260507055550 | 16 | 113 | 0.0 | 3.2 | 0.03 | 3.61 | 3.61 | 92 | 997.6 |
| 20260507055041 | 16 | 113 | 0.0 | 3.2 | 0.10 | 3.61 | 3.61 | 92 | 998.6 |
| 20260507054021 | 16 | 68 | 0.0 | 0.0 | 0.15 | 3.61 | 3.61 | 92 | 1000.5 |
| 20260507053511 | 16 | 68 | 0.0 | 0.0 | 0.20 | 3.61 | 3.61 | 92 | 1001.0 |
| 20260507052957 | 16 | 338 | 0.0 | 0.0 | 0.28 | 3.61 | 3.61 | 92 | 1001.2 |
| 20260507052450 | 16 | 68 | 0.0 | 0.0 | 0.38 | 3.61 | 3.61 | 92 | 1000.7 |
| 20260507051943 | 16 | 113 | 0.0 | 0.0 | 0.64 | 3.61 | 3.61 | 92 | 1000.7 |
| 20260507051430 | 16 | 135 | 0.0 | 0.0 | 0.76 | 3.61 | 3.61 | 92 | 1001.2 |
| 20260507050919 | 16 | 68 | 0.0 | 0.0 | 0.97 | 3.61 | 3.61 | 92 | 1001.3 |
| 20260507050411 | 16 | 68 | 0.0 | 0.0 | 1.09 | 3.58 | 3.61 | 92 | 1001.3 |
| 20260507045859 | 16 | 248 | 0.0 | 11.3 | 1.30 | 3.58 | 3.58 | 92 | 1001.7 |
| 20260507045350 | 16 | 315 | 0.0 | 29.0 | 1.52 | 3.53 | 3.53 | 92 | 1001.4 |
| 20260507044840 | 16 | 248 | 6.4 | 37.0 | 1.83 | 3.48 | 3.48 | 92 | 1001.2 |
| 20260507044330 | 16 | 225 | 24.1 | 37.0 | 2.29 | 3.45 | 3.45 | 92 | 1000.8 |
| 20260507043819 | 16 | 203 | 17.7 | 43.5 | 2.29 | 3.43 | 3.43 | 92 | 1000.5 |
| 20260507043309 | 16 | 225 | 24.1 | 49.9 | 2.51 | 3.38 | 3.38 | 92 | 999.8 |
| 20260507042759 | 16 | 203 | 37.0 | 49.9 | 2.82 | 3.30 | 3.30 | 92 | 998.8 |
| 20260507042253 | 16 | 225 | 37.0 | 49.9 | 3.10 | 3.10 | 3.10 | 92 | 999.0 |
| 20260507041739 | 16 | 225 | 30.6 | 40.2 | 2.92 | 2.92 | 2.95 | 92 | 998.5 |
| 20260507041228 | 17 | 180 | 30.6 | 38.6 | 2.79 | 2.79 | 2.79 | 92 | 999.0 |
| 20260507040719 | 18 | 203 | 22.5 | 25.7 | 2.64 | 2.64 | 2.64 | 92 | 1000.4 |
| 20260507040208 | 17 | 203 | 12.9 | 29.0 | 2.39 | 2.39 | 2.44 | 91 | 1001.0 |
| 20260507035658 | 17 | 248 | 3.2 | 29.0 | 2.18 | 2.18 | 2.21 | 91 | 1000.4 |
| 20260507035149 | 17 | 203 | 17.7 | 27.4 | 1.83 | 1.83 | 1.93 | 91 | 999.6 |
| 20260507034128 | 18 | 203 | 22.5 | 51.5 | 1.14 | 1.14 | 1.14 | 91 | 999.2 |
| 20260507033618 | 18 | 225 | 32.2 | 69.2 | 1.14 | 1.14 | 1.14 | 91 | 998.5 |
| 20260507033108 | 18 | 225 | 41.8 | 69.2 | 0.64 | 0.64 | 0.64 | 90 | 998.3 |
| 20260507032049 | 24 | 0 | 4.8 | 29.0 | 0.00 | 0.00 | 0.00 | 77 | 997.9 |
| 20260507031538 | 24 | 315 | 16.1 | 29.0 | 0.00 | 0.00 | 0.00 | 76 | 998.4 |
| 20260507031027 | 24 | 315 | 16.1 | 29.0 | 0.00 | 0.00 | 0.00 | 76 | 998.4 |
| 20260507030518 | 24 | 0 | 8.0 | 25.7 | 0.00 | 0.00 | 0.00 | 76 | 998.8 |
| 20260507030007 | 24 | 338 | 11.3 | 25.7 | 0.00 | 0.00 | 0.00 | 76 | 998.8 |
| 20260507025500 | 24 | 338 | 9.7 | 29.0 | 0.00 | 0.00 | 0.00 | 76 | 998.3 |
| 20260507024947 | 25 | 0 | 16.1 | 35.4 | 0.00 | 0.00 | 0.00 | 75 | 998.0 |
| 20260507024437 | 25 | 315 | 22.5 | 35.4 | 0.00 | 0.00 | 0.00 | 75 | 998.2 |
| 20260507023926 | 25 | 0 | 17.7 | 33.8 | 0.00 | 0.00 | 0.00 | 75 | 998.0 |
| 20260507023417 | 25 | 338 | 17.7 | 33.8 | 0.00 | 0.00 | 0.00 | 74 | 998.4 |
| 20260507022356 | 25 | 23 | 17.7 | 40.2 | 0.00 | 0.00 | 0.00 | 73 | 998.4 |
| 20260507021846 | 25 | 338 | 19.3 | 40.2 | 0.00 | 0.00 | 0.00 | 74 | 998.6 |
| 20260507021336 | 25 | 338 | 22.5 | 33.8 | 0.00 | 0.00 | 0.00 | 74 | 998.6 |
| 20260507020826 | 25 | 315 | 19.3 | 37.0 | 0.00 | 0.00 | 0.00 | 74 | 998.8 |
| 20260507020329 | 25 | 0 | 17.7 | 40.2 | 0.00 | 0.00 | 0.00 | 74 | 998.6 |
| 20260507015256 | 25 | 0 | 19.3 | 37.0 | 0.00 | 0.00 | 0.00 | 74 | 998.7 |
| 20260507014745 | 25 | 338 | 17.7 | 35.4 | 0.00 | 0.00 | 0.00 | 73 | 998.8 |
| 20260507013729 | 25 | 338 | 19.3 | 40.2 | 0.00 | 0.00 | 0.00 | 73 | 998.5 |
| 20260507012706 | 25 | 0 | 19.3 | 46.7 | 0.00 | 0.00 | 0.00 | 72 | 998.5 |
| 20260507012154 | 26 | 45 | 19.3 | 46.7 | 0.00 | 0.00 | 0.00 | 71 | 998.4 |
| 20260507011646 | 26 | 23 | 19.3 | 43.5 | 0.00 | 0.00 | 0.00 | 71 | 998.4 |
| 20260507011135 | 26 | 0 | 17.7 | 43.5 | 0.00 | 0.00 | 0.00 | 71 | 998.5 |
| 20260507010625 | 26 | 0 | 22.5 | 43.5 | 0.00 | 0.00 | 0.00 | 70 | 998.6 |
| 20260507010116 | 26 | 0 | 24.1 | 43.5 | 0.00 | 0.00 | 0.00 | 71 | 998.5 |
| 20260507005604 | 26 | 338 | 14.5 | 43.5 | 0.00 | 0.00 | 0.00 | 71 | 998.4 |
| 20260507005055 | 26 | 0 | 24.1 | 43.5 | 0.00 | 0.00 | 0.00 | 71 | 998.6 |
| 20260507004546 | 26 | 0 | 27.4 | 49.9 | 0.00 | 0.00 | 0.00 | 71 | 998.6 |
| 20260507004035 | 26 | 338 | 17.7 | 49.9 | 0.00 | 0.00 | 0.00 | 71 | 998.4 |
| 20260507003524 | 26 | 23 | 22.5 | 46.7 | 0.00 | 0.00 | 0.00 | 71 | 998.3 |
| 20260507003019 | 26 | 338 | 20.9 | 46.7 | 0.00 | 0.00 | 0.00 | 71 | 998.6 |
| 20260507002504 | 26 | 338 | 20.9 | 46.7 | 0.00 | 0.00 | 0.00 | 71 | 998.3 |
| 20260507001955 | 26 | 0 | 20.9 | 43.5 | 0.00 | 0.00 | 0.00 | 71 | 998.3 |
| 20260507001444 | 25 | 338 | 17.7 | 43.5 | 0.00 | 0.00 | 0.00 | 71 | 998.2 |
| 20260507000423 | 26 | 315 | 24.1 | 46.7 | 0.00 | 0.00 | 0.00 | 71 | 998.1 |
| 20260506235913 | 26 | 338 | 22.5 | 46.7 | 0.00 | 0.00 | 0.00 | 70 | 998.5 |
| 20260506234857 | 26 | 0 | 17.7 | 37.0 | 0.00 | 0.00 | 0.00 | 70 | 998.5 |
| 20260506234343 | 26 | 0 | 19.3 | 35.4 | 0.00 | 0.00 | 0.00 | 70 | 999.0 |
| 20260506233845 | 26 | 338 | 19.3 | 35.4 | 0.00 | 0.00 | 0.00 | 70 | 999.0 |
| 20260506233323 | 26 | 0 | 16.1 | 32.2 | 0.00 | 0.00 | 0.00 | 71 | 999.0 |
| 20260506232306 | 26 | 338 | 11.3 | 24.1 | 0.00 | 0.00 | 0.00 | 70 | 998.9 |
| 20260506231752 | 26 | 338 | 6.4 | 24.1 | 0.00 | 0.00 | 0.00 | 70 | 999.1 |
| 20260506231255 | 26 | 45 | 8.0 | 20.9 | 0.00 | 0.00 | 0.00 | 70 | 999.3 |
| 20260506230732 | 26 | 0 | 8.0 | 17.7 | 0.00 | 0.00 | 0.00 | 69 | 999.0 |
| 20260506230221 | 26 | 23 | 6.4 | 24.1 | 0.00 | 0.00 | 0.00 | 69 | 999.1 |
| 20260506225712 | 26 | 338 | 8.0 | 24.1 | 0.00 | 0.00 | 0.00 | 69 | 999.5 |
| 20260506225201 | 26 | 0 | 6.4 | 25.7 | 0.00 | 0.00 | 0.00 | 68 | 999.3 |
| 20260506224652 | 26 | 23 | 11.3 | 25.7 | 0.00 | 0.00 | 0.00 | 68 | 999.2 |
| 20260506224142 | 26 | 23 | 8.0 | 20.9 | 0.00 | 0.00 | 0.00 | 68 | 999.1 |
| 20260506223121 | 26 | 23 | 11.3 | 25.7 | 0.00 | 0.00 | 0.00 | 67 | 999.0 |
| 20260506222101 | 27 | 45 | 12.9 | 22.5 | 0.00 | 0.00 | 0.00 | 67 | 999.1 |
| 20260506221550 | 27 | 23 | 12.9 | 27.4 | 0.00 | 0.00 | 0.00 | 67 | 998.7 |
| 20260506221040 | 27 | 0 | 12.9 | 27.4 | 0.00 | 0.00 | 0.00 | 67 | 998.9 |
| 20260506220530 | 26 | 23 | 8.0 | 22.5 | 0.00 | 0.00 | 0.00 | 67 | 999.1 |
| 20260506220022 | 27 | 23 | 12.9 | 20.9 | 0.00 | 0.00 | 0.00 | 67 | 998.9 |
| 20260506215512 | 27 | 45 | 12.9 | 17.7 | 0.00 | 0.00 | 0.00 | 67 | 999.0 |
| 20260506215001 | 27 | 45 | 8.0 | 17.7 | 0.00 | 0.00 | 0.00 | 67 | 998.9 |
| 20260506214450 | 27 | 68 | 11.3 | 17.7 | 0.00 | 0.00 | 0.00 | 66 | 999.1 |
| 20260506213940 | 27 | 23 | 9.7 | 14.5 | 0.00 | 0.00 | 0.00 | 66 | 999.5 |
| 20260506213430 | 27 | 23 | 4.8 | 14.5 | 0.00 | 0.00 | 0.00 | 66 | 999.6 |
| 20260506212920 | 27 | 45 | 11.3 | 17.7 | 0.00 | 0.00 | 0.00 | 65 | 999.5 |
| 20260506211859 | 27 | 23 | 9.7 | 17.7 | 0.00 | 0.00 | 0.00 | 64 | 999.8 |
| 20260506211350 | 28 | 0 | 8.0 | 17.7 | 0.00 | 0.00 | 0.00 | 64 | 1000.0 |
| 20260506210839 | 28 | 68 | 9.7 | 17.7 | 0.00 | 0.00 | 0.00 | 63 | 999.9 |
| 20260506210329 | 28 | 23 | 8.0 | 20.9 | 0.00 | 0.00 | 0.00 | 63 | 1000.0 |
| 20260506205820 | 28 | 0 | 9.7 | 20.9 | 0.00 | 0.00 | 0.00 | 63 | 1000.0 |
| 20260506205309 | 28 | 68 | 9.7 | 17.7 | 0.00 | 0.00 | 0.00 | 63 | 1000.0 |
| 20260506204758 | 28 | 23 | 9.7 | 20.9 | 0.00 | 0.00 | 0.00 | 62 | 1000.1 |
| 20260506204249 | 28 | 23 | 9.7 | 20.9 | 0.00 | 0.00 | 0.00 | 62 | 1000.1 |
| 20260506203739 | 28 | 23 | 8.0 | 17.7 | 0.00 | 0.00 | 0.00 | 62 | 1000.3 |
| 20260506203228 | 28 | 315 | 9.7 | 22.5 | 0.00 | 0.00 | 0.00 | 62 | 1000.7 |